Location: Brookfield Center
(41.2406°N, 80.5579°W)
Time: 21:50:10
(UTC+00:00)

COSMO-SKYMED 1 - Pass Details

Date: 18 January 2020
Orbit: 621 x 623 km, 97.9° (Epoch: 28 February)

Event Time Altitude Azimuth Distance (km) Brightness Sun altitude
Rises 11:02:09 0° 182° (S) 2,889 6.1 -19.0°
Reaches altitude 10° 11:04:25 10° 189° (S) 1,988 5.2 -18.5°
Maximum altitude 11:08:32 43° 261° (W) 878 2.9 -17.8°
Enters shadow 11:10:01 32° 308° (NW) 1,087 3.3 -17.5°
